Theta_e
357 354 361 359 361 364 365 365 362 362 362 361 361 362 364 365 365 364 362 362 363 362 360 359 359 358 357 356 355 353 352 351 349 347 346 346 345 345 346 349 348 340 343
359 354 361 358 361 364 366 364 362 362 363 362 363 363 364 365 364 364 362 362 362 361 360 360 359 358 357 357 356 354 353 351 350 349 347 347 346 345 345 346 344 339 339
357 357 351 359 360 362 365 365 364 364 364 363 363 363 364 364 362 362 363 362 362 361 361 360 360 359 358 358 357 355 353 351 348 350 350 348 343 344 344 342 342 340 338
356 360 356 360 360 361 363 365 365 365 364 364 363 363 363 362 361 361 362 362 362 362 361 360 360 360 358 358 356 354 353 351 351 352 352 349 345 344 343 342 342 341 339
354 358 364 361 359 360 360 363 364 365 364 363 363 362 362 361 361 361 361 362 362 362 362 360 360 359 358 357 356 355 354 353 354 355 352 351 350 345 344 342 342 341 340
353 363 363 361 359 359 359 361 362 363 363 363 362 361 360 358 358 359 359 360 360 361 361 361 360 360 359 357 357 357 356 356 357 356 354 352 352 347 345 344 342 341 339
350 359 358 361 359 359 359 359 361 362 363 363 362 360 359 358 357 356 357 358 358 358 359 359 359 359 359 358 357 357 357 357 351 343 345 353 352 350 347 344 343 342 340
352 355 359 361 360 359 359 358 360 361 361 361 361 361 359 358 357 357 357 356 356 357 358 358 359 358 358 358 357 356 356 355 348 344 343 342 350 351 348 346 345 343 341
352 354 356 357 361 360 360 359 358 360 360 360 360 359 359 358 357 357 357 357 357 358 358 359 359 359 358 358 357 358 357 356 351 344 342 341 350 351 350 348 347 345 343
349 351 356 358 357 355 353 360 360 360 360 359 360 359 359 358 358 356 358 357 358 358 359 360 360 361 361 360 359 358 357 356 350 344 342 345 354 352 351 350 348 346 345
347 350 353 354 356 356 353 354 359 358 358 359 357 358 356 349 350 350 353 357 358 359 360 360 360 360 360 359 359 359 357 349 347 345 344 354 356 353 352 351 350 348 346
344 349 351 352 354 355 354 358 357 355 355 354 354 356 352 353 357 354 356 360 359 359 359 360 360 360 358 350 349 356 353 351 346 345 344 356 355 353 352 353 353 350 348
344 348 350 356 356 353 352 355 353 353 357 360 360 361 365 362 363 356 353 354 355 354 352 354 354 353 351 351 349 352 353 347 347 346 349 354 354 352 352 355 355 353 351
342 345 352 356 356 358 357 354 352 347 346 348 350 352 358 354 357 356 353 358 359 356 357 355 355 354 356 351 350 348 349 351 351 352 353 354 352 353 352 355 356 355 353
343 348 350 357 358 361 359 352 349 343 339 340 340 341 340 339 344 342 345 348 349 351 350 351 348 347 350 349 347 348 346 351 353 351 353 354 351 353 353 354 356 357 356
349 349 352 352 355 353 352 348 343 340 337 337 335 336 337 338 342 335 334 333 333 337 342 345 345 349 344 345 345 344 345 345 346 348 351 351 352 351 353 354 355 357 358
349 349 345 343 344 345 343 340 338 336 334 333 333 336 336 337 339 341 332 333 335 339 337 337 338 340 341 342 347 345 341 340 339 346 347 347 349 351 351 353 354 355 357
344 344 343 340 340 338 339 338 335 334 334 334 334 333 332 331 334 339 329 331 334 335 332 335 336 334 333 332 335 339 340 342 344 345 345 343 348 350 352 353 352 354 353
341 341 337 336 335 335 336 336 336 337 334 334 332 331 332 330 329 333 329 330 335 328 329 331 332 336 335 336 333 335 337 340 342 336 343 346 350 345 348 353 351 352 351
336 338 336 336 336 337 336 336 333 331 331 331 331 330 332 332 330 333 330 334 334 328 328 331 336 332 332 332 331 334 339 337 339 340 342 342 343 349 349 353 353 353 351
334 335 335 335 336 334 330 327 327 326 329 328 329 331 332 332 332 335 331 333 333 333 333 334 331 332 325 329 329 330 333 337 343 338 339 340 341 344 347 351 350 349 354
332 334 334 335 338 335 332 334 332 331 330 331 332 334 334 332 333 333 335 335 339 330 338 333 332 326 325 326 326 327 321 326 332 340 342 343 343 344 344 349 350 351 351
328 331 333 334 336 336 336 333 335 335 336 330 333 332 337 333 334 335 333 335 337 336 327 333 332 330 321 324 334 325 320 318 328 336 344 339 344 343 344 343 340 342 344
321 323 325 328 329 330 332 329 331 326 324 328 329 331 332 333 333 333 334 335 339 332 334 332 327 328 329 322 322 325 334 332 323 321 328 336 341 338 339 336 333 334 337
320 320 321 324 325 327 329 329 325 328 324 325 324 328 335 333 334 328 335 336 336 331 334 337 332 331 326 321 319 320 327 322 331 325 320 324 333 341 337 332 329 327 328
319 319 320 321 324 325 325 326 330 328 325 322 324 322 321 321 323 329 328 336 337 334 334 331 333 331 329 326 322 321 317 316 317 319 319 324 325 330 333 327 325 322 321
Wind_Speed
6 13 9 10 9 8 8 11 12 11 10 10 11 11 10 10 10 11 11 11 11 11 11 10 10 11 11 12 11 11 11 12 12 12 13 13 11 11 11 16 5 13 12
12 12 8 8 9 7 10 10 11 11 10 9 9 9 9 8 9 10 10 10 10 10 10 9 9 9 9 9 9 9 9 8 8 11 13 15 10 9 10 14 16 11 11
14 12 12 8 7 6 7 11 11 10 10 9 9 8 9 8 9 9 9 9 9 9 9 9 8 8 7 7 7 7 7 5 3 7 13 6 10 7 8 10 10 9 9
12 10 12 10 9 6 6 9 11 11 10 10 9 9 8 8 8 9 8 8 8 8 8 7 7 7 6 6 5 5 5 4 6 10 9 7 10 7 7 8 8 7 7
4 11 13 11 11 9 6 7 9 10 10 9 9 9 10 8 8 7 7 6 6 7 7 6 5 5 4 4 3 3 3 5 9 13 7 8 7 11 7 7 8 6 6
15 18 14 9 7 9 9 9 9 9 10 10 9 8 8 9 8 8 7 7 6 6 5 5 4 4 4 3 4 4 5 7 12 14 10 9 3 16 11 7 6 6 6
7 15 14 10 7 7 10 11 11 10 11 10 10 9 8 8 7 6 6 6 6 6 6 5 5 4 5 5 6 5 7 8 11 15 5 4 12 16 12 8 7 7 6
8 9 11 12 10 6 6 8 9 9 9 10 10 10 8 7 7 7 6 6 6 6 6 6 6 7 7 7 7 7 8 9 12 12 6 8 19 16 14 11 10 9 8
10 10 9 12 11 9 9 8 7 9 9 9 9 10 10 9 9 8 8 8 8 7 8 8 8 8 8 9 9 9 9 10 12 11 13 5 20 17 15 13 13 12 11
7 9 12 12 13 12 11 10 10 9 8 9 10 9 9 8 9 9 8 10 10 9 9 9 9 9 9 9 10 10 11 12 13 13 12 5 20 17 15 15 14 14 13
8 9 10 12 13 11 12 11 8 8 9 7 8 8 8 8 9 10 11 9 12 10 10 10 10 10 10 11 14 15 14 9 13 10 9 18 16 16 15 16 16 16 15
12 10 9 7 8 8 8 11 11 10 10 8 8 7 8 10 4 6 2 11 11 11 11 12 13 11 11 10 10 18 9 11 11 11 6 18 16 15 14 16 17 17 17
13 7 14 9 7 10 8 8 5 5 5 6 3 3 6 5 3 7 8 9 8 16 10 16 14 13 14 11 11 10 14 8 6 7 2 17 15 14 15 17 18 18 18
17 12 14 11 6 5 4 5 4 3 3 3 3 3 4 5 6 5 5 7 6 6 12 9 10 11 15 5 9 10 7 4 7 7 5 11 14 14 15 17 19 19 20
8 9 4 7 4 4 4 4 2 2 1 3 3 3 5 5 3 5 5 6 7 9 10 8 9 8 18 6 3 20 10 8 11 6 5 15 15 15 16 18 19 21 21
5 3 7 4 4 5 4 4 4 3 4 2 3 5 3 6 4 7 5 5 7 7 9 12 12 12 1 13 11 11 10 10 10 6 10 7 16 18 19 20 20 21 22
7 3 3 1 4 4 7 6 3 3 4 3 4 4 4 5 4 5 4 5 7 7 9 7 10 12 12 11 12 13 13 15 12 11 10 5 13 17 21 21 22 22 23
5 4 3 3 5 3 4 1 3 3 3 2 2 3 0 2 3 5 5 5 7 8 7 7 7 8 10 11 11 12 11 8 9 10 9 9 6 11 15 17 14 17 19
5 3 1 1 2 2 1 3 2 3 2 2 2 1 2 4 5 5 3 5 7 6 6 6 7 8 8 8 11 10 10 10 11 12 10 7 11 9 10 15 17 16 19
9 6 4 3 3 3 2 2 1 3 3 3 2 3 1 2 4 5 3 3 6 5 6 7 7 8 9 10 11 10 9 11 11 8 10 7 10 11 11 9 6 8 17
8 6 5 5 5 6 5 4 4 6 4 4 4 3 2 4 5 4 7 5 4 6 3 6 7 8 8 9 8 10 9 10 11 10 8 10 8 10 11 5 7 6 5
9 9 8 9 8 8 7 6 8 9 5 4 5 2 4 4 5 6 6 7 7 7 7 4 6 7 7 8 6 8 11 9 9 8 7 7 8 6 6 9 11 10 8
8 8 7 6 6 7 8 8 6 5 6 7 4 4 3 4 6 8 10 8 8 8 9 1 7 6 7 6 8 7 8 9 12 4 3 4 3 4 8 8 8 9 9
8 6 5 6 7 6 4 4 5 7 8 9 9 8 6 7 9 11 11 12 9 9 11 7 8 6 6 7 6 6 6 5 7 9 9 5 6 3 5 6 6 7 6
7 8 9 8 8 8 8 8 9 10 9 9 8 9 9 10 13 14 13 12 11 10 11 11 8 7 8 7 6 6 6 7 8 8 10 10 2 5 4 4 5 5 6
11 12 11 12 12 12 12 12 11 12 11 11 11 11 11 11 10 8 13 10 10 11 11 12 9 9 8 6 6 5 7 7 8 8 9 9 9 4 5 5 5 5 4
Wind_Direction
205 108 109 112 105 117 134 139 146 147 149 157 149 142 131 122 115 112 110 106 104 105 103 100 98 95 90 87 86 85 85 86 86 91 93 90 82 65 53 37 173 70 61
108 109 91 94 105 128 135 140 143 147 148 152 142 137 128 121 118 118 117 114 112 112 108 105 104 102 97 95 95 95 93 95 111 125 122 106 87 71 62 55 49 67 64
118 114 125 102 95 108 134 137 138 142 141 142 138 136 131 128 125 124 126 123 120 119 119 118 116 114 109 104 106 107 108 112 204 188 184 84 92 93 86 80 80 78 75
112 118 119 113 112 107 128 132 136 139 143 145 144 142 140 138 137 138 135 135 135 132 130 127 125 126 131 132 130 133 138 160 253 255 239 122 104 121 110 103 101 100 105
135 132 107 122 128 130 130 134 135 138 142 144 149 150 150 150 143 139 138 139 142 144 143 141 138 138 146 159 166 173 189 220 256 279 262 62 118 135 142 144 150 129 54
164 104 113 110 120 137 144 138 141 143 146 152 153 153 154 153 157 156 165 163 165 167 165 162 165 164 173 193 212 229 244 260 283 264 255 105 295 144 157 180 123 120 119
91 104 124 125 134 148 156 155 154 151 153 149 157 156 165 161 166 171 186 191 190 187 189 187 194 211 209 219 230 242 257 268 280 308 344 159 117 145 159 178 175 168 158
113 104 137 138 141 153 158 157 161 154 154 154 160 158 174 175 186 187 200 215 217 217 222 211 216 224 229 238 245 246 256 271 283 271 274 290 142 151 164 186 193 191 183
142 134 138 150 146 157 159 163 173 165 171 167 168 175 174 192 200 207 210 222 229 229 231 234 234 238 240 246 253 256 256 263 280 287 293 233 152 157 172 190 201 202 201
171 148 149 154 167 173 166 173 180 191 185 187 185 194 193 202 216 219 228 224 228 230 234 235 238 241 244 243 245 250 257 264 258 264 265 213 152 162 180 196 208 211 209
205 164 151 173 156 186 162 165 189 196 198 200 209 208 196 229 215 228 222 239 210 226 237 242 242 243 248 249 243 233 236 254 266 257 260 135 153 167 184 201 212 216 216
196 157 147 142 157 173 157 144 197 184 200 196 196 186 224 232 244 298 331 167 192 223 238 240 237 239 245 261 248 214 225 239 246 257 272 151 159 174 194 208 213 222 222
173 152 147 153 182 178 172 178 176 186 192 194 192 204 261 307 217 213 221 201 212 209 226 215 213 218 217 232 250 181 217 267 290 276 221 155 166 179 197 212 217 216 224
169 88 133 145 176 249 135 222 127 159 171 170 131 221 215 239 213 254 284 304 253 225 219 8 266 207 214 227 252 271 269 243 299 320 46 171 172 182 201 215 223 222 219
10 44 59 107 158 119 236 131 64 185 157 96 190 66 347 322 12 294 336 299 300 310 307 275 158 221 258 193 197 269 252 202 224 207 241 181 195 194 201 214 223 226 222
44 42 43 86 153 163 106 207 164 132 136 97 52 30 19 335 12 304 294 311 308 316 321 322 321 324 47 271 277 295 299 273 261 229 255 188 195 197 204 209 218 225 229
77 20 86 65 109 130 150 178 117 135 108 112 102 55 24 10 1 324 344 311 351 334 293 303 318 313 303 293 268 260 258 264 261 267 260 58 248 206 207 207 210 216 224
336 100 326 47 139 79 82 133 82 108 124 130 150 142 67 115 44 315 336 358 359 303 317 331 327 313 310 308 310 310 302 267 274 279 256 243 259 314 212 212 231 220 244
7 22 348 21 50 88 59 89 93 118 198 161 228 110 18 61 44 331 45 16 331 322 327 336 327 326 319 300 291 276 279 285 284 275 274 317 284 302 280 196 198 217 218
36 29 13 0 2 332 136 238 137 142 205 225 199 75 6 32 55 354 343 5 318 323 336 2 319 318 303 292 300 308 306 294 296 294 294 284 276 290 301 310 194 214 212
51 38 6 19 355 307 265 260 194 233 176 227 233 202 313 3 346 327 318 332 312 303 339 306 310 303 306 300 310 296 281 272 245 252 272 279 277 276 267 341 286 305 351
41 26 38 19 21 342 342 347 344 333 315 336 334 8 290 295 315 305 327 316 304 299 281 272 299 302 304 295 306 303 288 283 258 225 237 260 242 291 307 41 1 349 335
50 37 42 20 17 1 351 322 317 287 247 259 301 318 249 300 312 302 294 285 294 282 284 248 271 285 291 301 274 284 294 296 342 298 109 198 302 293 16 34 4 354 350
13 46 42 20 3 2 345 322 302 297 291 308 312 307 312 293 273 271 269 275 264 272 296 285 253 267 267 285 285 266 263 286 293 305 315 328 96 164 36 31 0 11 3
340 346 340 339 327 322 317 304 310 302 304 296 305 304 299 295 271 258 253 246 261 260 257 272 279 253 292 266 279 295 295 286 242 251 286 301 265 134 67 49 36 29 19
327 316 323 324 318 320 309 299 289 279 280 288 293 299 285 273 277 279 287 254 242 251 255 264 235 243 255 300 295 294 272 278 290 292 282 279 287 286 61 49 51 62 49